Walla Walla, WA
on Tuesday, November 6, 2012

Tuesday
Previous Day Next Day
Daily Summary
 ActualAverage (KPDT)Record (KPDT)
Temperature
Mean Temperature °F 45°F  
Max Temperature 64°F 54°F 74°F (2006)
Min Temperature 48°F 36°F 15°F (2003)
Degree Days
Heating Degree Days 9 20  
Month to date heating degree days 117  
Since 1 July heating degree days 659  
Cooling Degree Days 0 0  
Month to date cooling degree days 0  
Year to date cooling degree days 636  
Growing Degree Days6 (Base °F )  
Moisture
Dew Point 50°F   
Average Humidity 87    
Maximum Humidity 100    
Minimum Humidity 52    
Precipitation
Precipitation 0.01 in 0.05 in 0.33 in (1926)
Month to date precipitation 0.29  
Year to date precipitation 9.96  
Snow
Snow 0.00 in 0.00 in 0.30 in (1973)
Month to date snowfall 0.1  
Year to date snowfall 7.9  
Since 1 July snowfall 0.2  
Snow Depth in   
Wind
Wind Speed 3 mph   
Max Wind Speed 15 mph   
Max Gust Speed mph   
Visibility 4 miles   
Events Fog   

Key: T is trace of precipitation, MM is missing value
Source: NWS Daily Summary
Time(PST)TemperatureDew PointHumidity Pressure Visibility Wind DirectionWind SpeedGust SpeedPrecipitationEvents Conditions
12:53 AM 51.1°F 46.9°F 86% 30.16 in 10.0 miles SSE 3.5 mph - N/A   Clear
1:53 AM 51.1°F 48.0°F 89% 30.16 in 10.0 miles Calm Calm - N/A   Clear
2:53 AM 51.1°F 48.0°F 89% 30.13 in 10.0 miles SE 3.5 mph - N/A   Clear
4:53 AM 48.9°F 46.0°F 90% 30.11 in 10.0 miles Calm Calm - N/A   Clear
5:53 AM 48.0°F 46.0°F 93% 30.10 in 10.0 miles Calm Calm - N/A   Partly Cloudy
5:58 AM 50.0°F 48.2°F 94% 30.09 in 1.8 miles SSW 3.5 mph - N/A   Scattered Clouds
6:02 AM 48.2°F 48.2°F 100% 30.09 in 0.8 miles SSW 3.5 mph - N/A   Mist
6:10 AM 48.2°F 46.4°F 93% 30.09 in 0.2 miles SSW 3.5 mph - N/A Fog Fog
6:19 AM 48.2°F 48.2°F 100% 30.09 in 0.2 miles South 3.5 mph - N/A Fog Fog
6:37 AM 50.0°F 48.2°F 94% 30.09 in 0.2 miles South 4.6 mph - N/A Fog Fog
6:48 AM 50.0°F 48.2°F 94% 30.09 in 0.2 miles SSE 5.8 mph - N/A Fog Fog
6:53 AM 50.0°F 48.9°F 96% 30.09 in 0.2 miles SSE 5.8 mph - N/A Fog Fog
7:53 AM 48.9°F 48.9°F 100% 30.10 in 0.2 miles South 3.5 mph - N/A Fog Fog
8:53 AM 50.0°F 50.0°F 100% 30.08 in 0.2 miles SSW 3.5 mph - N/A Fog Fog
9:03 AM 50.0°F 50.0°F 100% 30.07 in 0.2 miles SSW 3.5 mph - N/A Fog Fog
9:53 AM 50.0°F 50.0°F 100% 30.06 in 0.2 miles South 3.5 mph - N/A Fog Fog
10:42 AM 50.0°F 50.0°F 100% 30.05 in 0.2 miles SSE 3.5 mph - N/A Fog Fog
10:53 AM 51.1°F 51.1°F 100% 30.05 in 0.2 miles South 3.5 mph - N/A Fog Fog
11:40 AM 51.8°F 51.8°F 100% 30.02 in 0.2 miles South 3.5 mph - N/A Fog Fog
11:53 AM 52.0°F 51.1°F 97% 30.02 in 0.2 miles Calm Calm - N/A Fog Fog
12:08 PM 51.8°F 51.8°F 100% 30.00 in 0.5 miles Calm Calm - N/A Fog Fog
12:22 PM 53.6°F 51.8°F 94% 29.99 in 1.8 miles Calm Calm - N/A   Overcast
12:53 PM 54.0°F 53.1°F 97% 29.98 in 1.0 miles Calm Calm - N/A   Mostly Cloudy
1:50 PM 57.2°F 53.6°F 88% 29.96 in 2.0 miles Calm Calm - N/A   Scattered Clouds
1:53 PM 57.0°F 53.1°F 87% 29.96 in 2.5 miles Calm Calm - N/A   Scattered Clouds
2:06 PM 57.2°F 53.6°F 88% 29.95 in 6.0 miles Calm Calm - N/A   Haze
2:53 PM 61.0°F 54.0°F 78% 29.92 in 8.0 miles Calm Calm - N/A   Clear
3:53 PM 59.0°F 53.1°F 81% 29.94 in 6.0 miles South 3.5 mph - N/A   Haze
4:53 PM 57.9°F 53.1°F 84% 29.94 in 8.0 miles SE 5.8 mph - N/A   Clear
5:53 PM 63.0°F 48.9°F 60% 29.91 in 10.0 miles South 12.7 mph - N/A   Clear
6:53 PM 60.1°F 48.9°F 67% 29.92 in 10.0 miles South 6.9 mph - N/A   Clear
7:53 PM 64.9°F 46.9°F 52% 29.91 in 10.0 miles SSW 15.0 mph - N/A   Partly Cloudy
8:53 PM 64.9°F 48.0°F 54% 29.93 in 10.0 miles SSW 11.5 mph - N/A   Overcast
9:53 PM 64.0°F 48.0°F 56% 29.94 in 10.0 miles SSW 10.4 mph - N/A   Overcast
10:53 PM 62.1°F 48.9°F 62% 29.95 in 10.0 miles SW 4.6 mph - 0.01 in   Overcast
11:53 PM 59.0°F 48.0°F 67% 29.95 in 10.0 miles SSW 8.1 mph - N/A   Overcast
Moon Phase
Nov. 06 Nov. 06 Nov. 13 Nov. 20 Nov. 28
Sunrise:06:41 AM (PST) Moon Rise:11:19 PM (PST)11/6
Sunset:04:31 PM (PST) Moon Set:12:33 PM (PST)11/6

Copyright © 2014 The Weather Underground, Inc.